Location: Casilda
(33.0440°S, 61.1680°W)
Time: 18:25:56
(UTC-03:00)

ISS - Pass Details

Date: 01 December 2020
Orbit: 418 x 420 km, 51.6° (Epoch: 04 December)

Event Time Altitude Azimuth Distance (km) Brightness Sun altitude
Exits shadow 03:17:41 25° 187° (S) 895 -1.7 -25.2°
Drops below altitude 10° 03:19:48 10° 154° (SSE) 1,528 0.1 -25.0°
Sets 03:22:06 0° 143° (SE) 2,399 1.5 -24.7°
